Other Surface Observations
Issued by NWS

Home | Current Version | Previous Version | Text Only | Print | Product List | Glossary On
Versions: 1 2 3 4 5 6 7 8 9 10 11 12 13 14 15 16 17 18 19 20 21 22 23 24 25 26 27 28 29 30 31 32 33 34 35 36 37 38 39 40 41 42 43 44 45 46 47 48 49 50
000
SXUS52 KTAE 061905
OSOTAE
OSOTAE
North Florida/South Alabama/Southwest Georgia Weather Roundup
National Weather Service Tallahassee Florida
300 PM EDT WED MAY 06 2015

Note: "fair" indicates few or no clouds below 12,000 feet with no
significant weather and/or obstructions to visibility.

!FLZ017-115-028-034-025-062000
...North Florida...

CITY           SKY/WX    TMP DP  RH WIND       PRES   REMARKS
TALLAHASSEE    PTSUNNY   85  59  41 E10       30.08F
APALACHICOLA   SUNNY     83  66  56 SE10      30.08F
PERRY          PTSUNNY   84  61  45 N5        30.07F
CROSS CITY       N/A     88  64  44 N7G17     30.04F
JACKSONVILLE   CLOUDY    77  65  66 NE16      30.08F
$$

!FLZ112-006-005-002-011-062000
...Florida Panhandle...

CITY           SKY/WX    TMP DP  RH WIND       PRES   REMARKS
MARIANNA       MOSUNNY   83  58  42 NE9       30.08F
BONIFAY        NOT AVBL
PANAMA CITY NW CLOUDY    84  56  38 NE7       30.06F
TYNDALL AFB    SUNNY     81  65  58 SW13      30.07F
TYND DRONE APT FAIR      78  68  70 SW9       30.07F
DE FUNIAK SPR  FAIR      84  56  38 E3        30.09F
EGLIN AFB      MOSUNNY   81  62  53 S10       30.08F
DESTIN         SUNNY     80  63  55 SW8       30.09F
HURLBURT       SUNNY     81  61  50 VRB6      30.11R
CRESTVIEW      MOSUNNY   84  55  36 CALM      30.09F
PENSACOLA      SUNNY     81  58  45 SE10      30.09F
$$

!ALZ063-066-062000
...South Alabama...

CITY           SKY/WX    TMP DP  RH WIND       PRES   REMARKS
DOTHAN         PTSUNNY   82  59  45 E10       30.13F
OZARK CAIRNS   SUNNY     83  57  40 NE7       30.09F
FT RUCKER HELI PTSUNNY   81  58  45 NE8       30.09F
RUCKER HELI 3  FAIR      80  58  45 NE7       30.12F
RUCKER HELI 2  PTSUNNY   82  56  40 E10G17    30.09F
FLORALA APT    PTSUNNY   81  56  42 VRB5      30.11F
ANDALUSIA      SUNNY     88  56  33 CALM      30.10F
TROY           MOSUNNY   83  57  41 N7        30.12F
EUFALA         FAIR      84  59  42 CALM      30.10F
MOBILE         PTSUNNY   82  61  48 SE7       30.09F
$$

!GAZ120>161-062000
...Southwest and South Central Georgia...

CITY           SKY/WX    TMP DP  RH WIND       PRES   REMARKS
THOMASVILLE    FAIR      82  61  47 E9        30.11F
BAINBRIDGE     MOSUNNY   86  59  39 NE7       30.10F
MOODY AFB      SUNNY     83  54  37 VRB5      30.08F
VALDOSTA       MOSUNNY   82  60  47 NE5       30.09F
MOULTRIE       MOSUNNY   82  55  39 NE6       30.11F
BLAKELY        MOSUNNY   82  61  47 E8        30.11F
ALBANY         PTSUNNY   82  55  39 VRB5      30.13F
TIFTON         FAIR      81  44  27 NE8       30.11F
FITZGERALD     FAIR      82  45  27 E7        30.14F
CORDELE        FAIR      83  47  28 E6G16     30.13F
AMERICUS       FAIR      79  46  31 NE6       30.14F
HOMERVILLE     FAIR      82  63  51 E7        30.09F
$$

!GMZ750-755-770-775-062000
...Coastal and Buoy Obs...

STATION/POSITION TIME  TEMP    WIND        PRES    VSBY  WAVE
                       AIR SEA DIR/SP/G                  HT/PER
                 (UTC) (F)     (DEG/KT/KT) (MB)    (MI)  (FT/S)
KEATON BEACH     1900   80      70/  9/ 11 1017.8F
CEDAR KEY        1800   77     260/  6/  7 1018.1F
C TOWER          1900   72     100/  7/  7 1018.9F
APALACHICOLA BUO 1850   74 76   60/  6/  6 1018.5F         2/ 5
PANAMA CITY BUOY 1750   73 76  110/  8/ 10 1019.5          3/ 6
MOBILE BUOY      1850   75 75  120/ 14/ 17 1018.7F         5/ 6
ORANGE BCH AL BU 1850   73 75  110/ 10/ 10 1018.4F         4/ 7
$$



USA.gov is the U.S. government's official web portal to all federal, state and local government web resources and services.